When you browse on this site, cookies collect data to enhance your experience and personalize the content and advertising you see.
Visit our Privacy Policy to learn more. By continuing to use the site, you agree to this use of cookies and data.
  • In Austria
  • List of Countries
  • For 7 days
  • Water Temperature
  • Weather Map
  • News
  • Weather Widgets
  • user-avatar
    Login

    Hourly Weather Ondjiwa

    Today, 6 December, Friday

    Time Temperature Precipitation Wind Pressure Humidity
    00:00 +24°C° 0 mm 2 mps 666 mmHg 70%
    01:00 +23°C° 0 mm 4 mps 666 mmHg 68%
    02:00 +22°C° 0 mm 3 mps 665 mmHg 70%
    03:00 +21°C° 0 mm 3 mps 665 mmHg 73%
    04:00 +21°C° 0 mm 3 mps 665 mmHg 75%
    05:00 +21°C° 0 mm 3 mps 665 mmHg 73%
    06:00 +22°C° 0 mm 3 mps 666 mmHg 70%
    07:00 +24°C° 0 mm 3 mps 667 mmHg 67%
    08:00 +25°C° 0 mm 2 mps 667 mmHg 61%
    09:00 +27°C° 0 mm 2 mps 667 mmHg 55%
    10:00 +28°C° 0 mm 2 mps 667 mmHg 49%
    11:00 +29°C° 0 mm 2 mps 666 mmHg 46%
    12:00 +30°C° 0 mm 2 mps 666 mmHg 44%
    13:00 +31°C° 0 mm 2 mps 666 mmHg 40%
    14:00 +31°C° 0 mm 2 mps 665 mmHg 41%
    15:00 +31°C° 0 mm 2 mps 665 mmHg 41%
    16:00 +31°C° 0 mm 2 mps 665 mmHg 41%
    17:00 +30°C° 0 mm 2 mps 665 mmHg 44%
    18:00 +29°C° 0 mm 1 mps 665 mmHg 47%
    19:00 +28°C° 0 mm 1 mps 665 mmHg 49%
    20:00 +28°C° 0 mm 1 mps 665 mmHg 51%
    21:00 +27°C° 0 mm 1 mps 666 mmHg 52%
    22:00 +27°C° 0 mm 1 mps 666 mmHg 54%
    23:00 +26°C° 0.1 mm 2 mps 666 mmHg 58%

    Tomorrow, 7 December, Saturday

    Time Temperature Precipitation Wind Pressure Humidity
    00:00 +25°C° 0.1 mm 2 mps 665 mmHg 62%
    01:00 +24°C° 0.1 mm 2 mps 665 mmHg 67%
    02:00 +24°C° 0 mm 2 mps 665 mmHg 66%
    03:00 +24°C° 0 mm 2 mps 665 mmHg 65%
    04:00 +24°C° 0 mm 2 mps 665 mmHg 65%
    05:00 +24°C° 0 mm 2 mps 666 mmHg 63%
    06:00 +24°C° 0 mm 3 mps 666 mmHg 61%
    07:00 +24°C° 0 mm 3 mps 667 mmHg 60%
    08:00 +26°C° 0 mm 3 mps 667 mmHg 55%
    09:00 +28°C° 0 mm 2 mps 667 mmHg 50%
    10:00 +29°C° 0 mm 2 mps 667 mmHg 45%
    11:00 +30°C° 0 mm 2 mps 667 mmHg 42%
    12:00 +32°C° 0 mm 2 mps 666 mmHg 38%
    13:00 +34°C° 0 mm 2 mps 666 mmHg 35%
    14:00 +34°C° 0 mm 2 mps 665 mmHg 35%
    15:00 +33°C° 0 mm 3 mps 664 mmHg 35%
    16:00 +33°C° 0 mm 3 mps 664 mmHg 35%
    17:00 +31°C° 0 mm 2 mps 664 mmHg 37%
    18:00 +30°C° 0 mm 1 mps 664 mmHg 39%
    19:00 +29°C° 0 mm 1 mps 664 mmHg 42%
    20:00 +29°C° 0 mm 1 mps 665 mmHg 43%
    21:00 +28°C° 0 mm 2 mps 665 mmHg 44%
    22:00 +28°C° 0 mm 3 mps 665 mmHg 45%
    23:00 +27°C° 0 mm 3 mps 665 mmHg 45%

    Day after tomorrow, 8 December, Sunday

    Time Temperature Precipitation Wind Pressure Humidity
    00:00 +26°C° 0 mm 4 mps 665 mmHg 46%
    01:00 +26°C° 0 mm 4 mps 665 mmHg 47%
    02:00 +25°C° 0 mm 4 mps 665 mmHg 49%
    03:00 +23°C° 0 mm 4 mps 665 mmHg 52%
    04:00 +22°C° 0 mm 3 mps 664 mmHg 54%
    05:00 +22°C° 0 mm 3 mps 665 mmHg 53%
    06:00 +24°C° 0 mm 3 mps 666 mmHg 52%
    07:00 +24°C° 0 mm 3 mps 666 mmHg 52%
    08:00 +26°C° 0 mm 3 mps 666 mmHg 45%
    09:00 +28°C° 0 mm 3 mps 666 mmHg 38%
    10:00 +30°C° 0 mm 3 mps 666 mmHg 30%
    11:00 +31°C° 0 mm 3 mps 666 mmHg 29%
    12:00 +33°C° 0 mm 3 mps 666 mmHg 27%
    13:00 +34°C° 0 mm 3 mps 665 mmHg 25%
    14:00 +34°C° 0 mm 3 mps 665 mmHg 26%
    15:00 +33°C° 0 mm 3 mps 664 mmHg 26%
    16:00 +33°C° 0 mm 3 mps 664 mmHg 27%
    17:00 +31°C° 0 mm 2 mps 664 mmHg 29%
    18:00 +30°C° 0 mm 2 mps 664 mmHg 32%
    19:00 +29°C° 0 mm 1 mps 664 mmHg 35%
    20:00 +28°C° 0 mm 2 mps 664 mmHg 35%
    21:00 +28°C° 0 mm 3 mps 665 mmHg 36%
    22:00 +27°C° 0 mm 3 mps 665 mmHg 37%
    23:00 +26°C° 0 mm 3 mps 665 mmHg 40%

    9 December, Monday

    Time Temperature Precipitation Wind Pressure Humidity
    00:00 +25°C° 0 mm 3 mps 665 mmHg 43%
    01:00 +22°C° 0 mm 3 mps 665 mmHg 46%
    02:00 +22°C° 0 mm 3 mps 665 mmHg 49%
    03:00 +21°C° 0 mm 2 mps 665 mmHg 52%
    04:00 +20°C° 0 mm 2 mps 665 mmHg 55%
    05:00 +21°C° 0 mm 2 mps 665 mmHg 53%
    06:00 +21°C° 0 mm 3 mps 666 mmHg 50%
    07:00 +22°C° 0 mm 3 mps 666 mmHg 48%
    08:00 +25°C° 0 mm 3 mps 666 mmHg 40%
    09:00 +27°C° 0 mm 3 mps 667 mmHg 33%
    10:00 +29°C° 0 mm 3 mps 667 mmHg 26%
    11:00 +30°C° 0 mm 3 mps 667 mmHg 24%
    12:00 +32°C° 0 mm 4 mps 666 mmHg 21%
    13:00 +34°C° 0 mm 4 mps 666 mmHg 19%
    14:00 +34°C° 0 mm 4 mps 665 mmHg 17%
    15:00 +34°C° 0 mm 4 mps 665 mmHg 15%
    16:00 +34°C° 0 mm 4 mps 664 mmHg 14%
    17:00 +32°C° 0 mm 4 mps 664 mmHg 16%
    18:00 +29°C° 0 mm 3 mps 664 mmHg 18%
    19:00 +27°C° 0 mm 3 mps 664 mmHg 20%
    20:00 +26°C° 0 mm 3 mps 665 mmHg 22%
    21:00 +25°C° 0 mm 3 mps 665 mmHg 24%
    22:00 +23°C° 0 mm 4 mps 665 mmHg 27%
    23:00 +22°C° 0 mm 4 mps 665 mmHg 29%

    10 December, Tuesday

    Time Temperature Precipitation Wind Pressure Humidity
    00:00 +21°C° 0 mm 4 mps 665 mmHg 31%
    01:00 +21°C° 0 mm 4 mps 665 mmHg 33%
    02:00 +20°C° 0 mm 3 mps 665 mmHg 36%
    03:00 +19°C° 0 mm 3 mps 665 mmHg 38%
    04:00 +18°C° 0 mm 2 mps 665 mmHg 41%
    05:00 +19°C° 0 mm 2 mps 665 mmHg 42%
    06:00 +20°C° 0 mm 2 mps 666 mmHg 43%
    07:00 +21°C° 0 mm 2 mps 666 mmHg 44%
    08:00 +25°C° 0 mm 1 mps 667 mmHg 37%
    09:00 +27°C° 0 mm 1 mps 667 mmHg 31%
    10:00 +29°C° 0 mm 1 mps 667 mmHg 24%
    11:00 +30°C° 0 mm 2 mps 667 mmHg 21%
    12:00 +31°C° 0 mm 2 mps 667 mmHg 17%
    13:00 +33°C° 0 mm 3 mps 666 mmHg 14%
    14:00 +33°C° 0 mm 3 mps 666 mmHg 13%
    15:00 +34°C° 0 mm 3 mps 665 mmHg 12%
    16:00 +34°C° 0 mm 3 mps 665 mmHg 11%
    17:00 +31°C° 0 mm 2 mps 664 mmHg 13%
    18:00 +29°C° 0 mm 2 mps 664 mmHg 15%
    19:00 +27°C° 0 mm 1 mps 664 mmHg 17%
    20:00 +26°C° 0 mm 2 mps 665 mmHg 19%
    21:00 +25°C° 0 mm 2 mps 665 mmHg 22%
    22:00 +24°C° 0 mm 3 mps 666 mmHg 25%
    23:00 +22°C° 0 mm 3 mps 666 mmHg 30%

    11 December, Wednesday

    Time Temperature Precipitation Wind Pressure Humidity
    00:00 +22°C° 0 mm 3 mps 666 mmHg 34%
    01:00 +21°C° 0 mm 3 mps 665 mmHg 38%
    02:00 +20°C° 0 mm 3 mps 665 mmHg 42%
    03:00 +19°C° 0 mm 2 mps 665 mmHg 46%
    04:00 +19°C° 0 mm 2 mps 665 mmHg 50%
    05:00 +20°C° 0 mm 2 mps 666 mmHg 48%
    06:00 +20°C° 0 mm 2 mps 666 mmHg 47%
    07:00 +21°C° 0 mm 2 mps 667 mmHg 45%
    08:00 +25°C° 0 mm 2 mps 667 mmHg 38%
    09:00 +27°C° 0 mm 2 mps 668 mmHg 31%
    10:00 +29°C° 0 mm 2 mps 668 mmHg 25%
    11:00 +31°C° 0 mm 2 mps 668 mmHg 22%
    12:00 +32°C° 0 mm 1 mps 668 mmHg 19%
    13:00 +34°C° 0 mm 1 mps 667 mmHg 16%
    14:00 +34°C° 0 mm 1 mps 667 mmHg 16%
    15:00 +34°C° 0 mm 1 mps 666 mmHg 15%
    16:00 +34°C° 0 mm 1 mps 665 mmHg 14%
    17:00 +32°C° 0 mm 1 mps 665 mmHg 16%
    18:00 +30°C° 0 mm 1 mps 665 mmHg 18%
    19:00 +29°C° 0 mm 1 mps 665 mmHg 20%
    20:00 +28°C° 0 mm 1 mps 665 mmHg 22%
    21:00 +27°C° 0 mm 2 mps 666 mmHg 24%
    22:00 +26°C° 0 mm 2 mps 666 mmHg 25%
    23:00 +25°C° 0 mm 2 mps 666 mmHg 29%
    Show more